Regional Weather Roundup
Issued by NWS

Home | Current Version | Previous Version | Graphics & Text | Print | Product List | Glossary Off
Versions: 1 2 3 4 5 6 7 8 9 10 11 12 13 14 15 16 17 18 19 20 21 22 23 24 25 26 27 28 29 30 31 32 33 34 35 36 37 38 39 40 41 42 43 44 45 46 47 48 49 50

000
ASUS43 KTOP 240259
RWRKS

WEATHER ROUNDUP FOR KANSAS
NATIONAL WEATHER SERVICE GOODLAND KS
1000 PM CDT SUN JUL 23 2017

NOTE:  "FAIR" INDICATES FEW OR NO CLOUDS BELOW 12,000 FEET WITH NO
SIGNIFICANT WEATHER AND/OR OBSTRUCTIONS TO VISIBILITY.

KSZ001>006-013>018-027>032-041>047-240400-
NORTHWEST KANSAS

CITY           SKY/WX    TMP DP  RH WIND       PRES   REMARKS
GOODLAND       CLEAR     71  57  61 S9        30.06R
HAYS             N/A     81  60  48 SE7       29.98R
HILL CITY      CLEAR     79  64  60 E6        30.00R
RUSSELL        CLEAR     79  61  53 SE9       29.96R
$$

KSZ061>065-074>080-084>089-240400-
SOUTHWEST KANSAS

CITY           SKY/WX    TMP DP  RH WIND       PRES   REMARKS
DODGE CITY     CLEAR     77  63  61 SE7       30.03R
ELKHART          N/A     75  54  48 E7          N/A
GARDEN CITY    CLEAR     79  59  50 SE10      30.03R
LIBERAL        CLEAR     81  65  58 E9        30.04R
$$

KSZ066>073-081>083-090>101-240400-
SOUTHEAST KANSAS

CITY           SKY/WX    TMP DP  RH WIND       PRES   REMARKS
CHANUTE        PTCLDY    79  72  79 SE6       29.93R
COFFEYVILLE    HAZE      80  74  81 CALM      29.92R VSB 1/2
HUTCHINSON     CLEAR     74  69  85 CALM      29.96R
MEDICINE LODGE   N/A     85  63  47 E5        29.95R
NEWTON         CLEAR     80  73  79 SE5       29.97R
PARSONS        PTCLDY    76  73  91 CALM      29.94R
WICHITA INTL   PTCLDY    83  69  62 SE3       29.94R
WICHITA JABRA  CLEAR     77  72  84 E3        29.95R
WICHITA MCCONL CLEAR     84  68  58 E3        29.95R
WINFIELD       CLEAR     80  69  69 SE3       29.94R
$$

KSZ007>012-019>026-033>040-048>060-102>105-240400-
NORTHEAST KANSAS

CITY           SKY/WX    TMP DP  RH WIND       PRES   REMARKS
CONCORDIA      CLEAR     80  71  74 CALM      29.96R
EMPORIA        CLEAR     78  73  84 S5        29.94R
LAWRENCE       MOCLDY    80  79  96 CALM      29.92R
MANHATTAN      PTCLDY    87  71  58 CALM      29.93R
OLATHE IND     PTCLDY    81  76  84 S3        29.93R
OLATHE EXE     PTCLDY    81  77  88 CALM      29.93R
SALINA         CLEAR     80  69  69 S5        29.94R
TOPEKA BILLARD MOCLDY    85  78  80 CALM      29.92R HX  96
TOPEKA FORBES  PTCLDY    82  76  81 CALM      29.93R
$$




USA.gov is the U.S. government's official web portal to all federal, state and local government web resources and services.